Home > Weather > Burgdorf > Past weeks

Flag for Germany Past Weather in Burgdorf, Lower Saxony, Germany — Yesterday and Last 2 Weeks

Now
63 °F

Passing clouds.


Feels Like: 63 °F
Forecast: 61 / 71 °F
Wind: 6 mph from Southwest

Location: Celle Airport

Current Time: Jul 29, 2016 at 6:04:46 AM

Latest Report: Jul 29, 2016 at 5:20 AM


Visibility: 6 mi

Pressure: 29.89 "Hg

Humidity: 94%

Dew Point: 61 °F

Location of BurgdorfLocation

Past Weather in Burgdorf — Graph

°F

Burgdorf Temperature Yesterday

Maximum temperature yesterday: 70 °F (at 1:20 PM)
Minimum temperature yesterday: 63 °F (at 12:20 AM)
Average temperature yesterday: 66 °F

High & Low Weather Summary for the Past Weeks

 TemperatureHumidityPressure
High88 °F (Jul 20, 4:20 PM)100% (Jul 14, 8:50 PM)30.24 "Hg (Jul 14, 8:50 PM)
Low46 °F (Jul 16, 5:20 AM)31% (Jul 20, 3:20 PM)29.86 "Hg (Jul 29, 3:20 AM)
Average68 °F71%30.06 "Hg
* Reported Jul 14 4:20 AM — Jul 29 4:20 AM, Burgdorf, Weather by CustomWeather, © 2016

Note: Actual official high and low records may vary slightly from our data, if they occured in-between our weather recording intervals... More about our weather records

Advertising

Burgdorf Weather History for the Previous 24 Hours

Scroll right to see more
 ConditionsComfort  
Time TempWeatherWind HumidityBarometerVisibility
4:20 AM
Fri, Jul 29
63 °FPassing clouds.3 mph94%29.89 "HgN/A
3:20 AM63 °FPassing clouds.2 mph94%29.86 "HgN/A
2:20 AM63 °FPassing clouds.5 mph94%29.89 "HgN/A
1:20 AM63 °FPartly cloudy.5 mph100%29.89 "HgN/A
12:20 AM63 °FPartly cloudy.5 mph94%29.89 "HgN/A
11:20 PM
Thu, Jul 28
64 °FPartly cloudy.5 mph88%29.89 "HgN/A
10:20 PM66 °FPassing clouds.3 mph88%29.92 "HgN/A
9:20 PM68 °FBroken clouds.5 mph88%29.92 "Hg5 mi
8:20 PM68 °FBroken clouds.2 mph94%29.92 "HgN/A
7:20 PM68 °FBroken clouds.2 mph94%29.92 "HgN/A
6:20 PM68 °FThunderstorms. Broken clouds.2 mph88%29.92 "HgN/A
5:20 PM68 °FBroken clouds.5 mph88%29.95 "Hg6 mi
4:20 PM70 °FScattered showers. Broken clouds.5 mph73%29.95 "HgN/A
3:20 PM68 °FBroken clouds.6 mph78%29.98 "HgN/A
2:20 PM70 °FSprinkles. Broken clouds.2 mph69%29.98 "HgN/A
1:20 PM70 °FBroken clouds.3 mph64%30.01 "HgN/A
12:20 PM68 °FBroken clouds.5 mph69%30.01 "HgN/A
11:20 AM66 °FBroken clouds.5 mph78%30.01 "HgN/A
10:20 AM68 °FBroken clouds.5 mph73%30.01 "HgN/A
9:20 AM66 °FBroken clouds.5 mph78%30.01 "HgN/A
8:20 AM64 °FBroken clouds.5 mph88%30.01 "HgN/A
7:20 AM64 °FLight rain. Broken clouds.8 mph88%29.98 "HgN/A
6:20 AM64 °FLight rain. Passing clouds.7 mph83%29.98 "HgN/A
Weather by CustomWeather, © 2016

See weather overviewHow to use our weather pages